TimeEST,TemperatureF,Dew PointF,Humidity,Sea Level PressureIn,VisibilityMPH,Wind Direction,Wind SpeedMPH,Gust SpeedMPH,PrecipitationIn,Events,Conditions,WindDirDegrees,DateUTC
12:15 AM,57.2,51.8,82,29.72,10.0,WSW,10.4,17.3,N/A,,Overcast,240,2012-12-18 05:15:00
12:35 AM,55.4,51.8,88,29.73,10.0,SW,8.1,-,N/A,,Mostly Cloudy,230,2012-12-18 05:35:00
12:55 AM,55.4,51.8,88,29.72,10.0,SW,12.7,17.3,N/A,,Mostly Cloudy,230,2012-12-18 05:55:00
1:15 AM,55.4,51.8,88,29.72,10.0,SW,9.2,-,N/A,,Scattered Clouds,220,2012-12-18 06:15:00
1:35 AM,55.4,51.8,88,29.72,10.0,WSW,5.8,-,N/A,,Scattered Clouds,250,2012-12-18 06:35:00
1:55 AM,55.4,51.8,88,29.72,10.0,West,3.5,-,N/A,,Overcast,260,2012-12-18 06:55:00
2:15 AM,55.4,51.8,88,29.72,10.0,WSW,5.8,-,N/A,,Overcast,240,2012-12-18 07:15:00
2:35 AM,55.4,51.8,88,29.72,10.0,SW,3.5,-,N/A,,Overcast,230,2012-12-18 07:35:00
2:55 AM,55.4,51.8,88,29.72,10.0,SW,3.5,-,N/A,,Overcast,230,2012-12-18 07:55:00
3:15 AM,53.6,51.8,94,29.72,10.0,SW,3.5,-,N/A,,Overcast,230,2012-12-18 08:15:00
3:35 AM,53.6,51.8,94,29.72,10.0,SW,3.5,-,N/A,,Mostly Cloudy,230,2012-12-18 08:35:00
3:55 AM,53.6,50.0,88,29.71,10.0,SSW,4.6,-,N/A,,Scattered Clouds,200,2012-12-18 08:55:00
4:15 AM,51.8,50.0,94,29.70,10.0,Calm,Calm,-,N/A,,Scattered Clouds,0,2012-12-18 09:15:00
4:35 AM,51.8,50.0,94,29.70,10.0,SW,4.6,-,N/A,,Mostly Cloudy,220,2012-12-18 09:35:00
4:55 AM,51.8,50.0,94,29.70,10.0,SSW,5.8,-,N/A,,Mostly Cloudy,210,2012-12-18 09:55:00
5:15 AM,51.8,50.0,94,29.71,10.0,SW,3.5,-,N/A,,Scattered Clouds,230,2012-12-18 10:15:00
5:35 AM,53.6,51.8,94,29.72,10.0,SW,6.9,-,N/A,,Mostly Cloudy,230,2012-12-18 10:35:00
5:55 AM,53.6,50.0,88,29.72,10.0,SW,5.8,-,N/A,,Overcast,220,2012-12-18 10:55:00
6:15 AM,53.6,50.0,88,29.72,10.0,SW,4.6,-,N/A,,Overcast,230,2012-12-18 11:15:00
6:55 AM,55.4,51.8,88,29.73,7.0,WSW,9.2,-,N/A,,Overcast,240,2012-12-18 11:55:00
7:55 AM,55.4,51.8,88,29.75,10.0,WSW,6.9,-,N/A,,Overcast,250,2012-12-18 12:55:00
8:55 AM,55.4,50.0,82,29.77,10.0,West,6.9,-,N/A,,Mostly Cloudy,260,2012-12-18 13:55:00
9:55 AM,57.2,46.4,67,29.79,10.0,West,10.4,19.6,N/A,,Scattered Clouds,280,2012-12-18 14:55:00
10:55 AM,59.0,35.6,42,29.80,10.0,NW,10.4,24.2,N/A,,Scattered Clouds,320,2012-12-18 15:55:00
11:55 AM,60.8,33.8,36,29.81,10.0,NW,12.7,23.0,N/A,,Partly Cloudy,320,2012-12-18 16:55:00
12:55 PM,60.8,30.2,31,29.82,10.0,NW,12.7,21.9,N/A,,Partly Cloudy,310,2012-12-18 17:55:00
1:55 PM,60.8,30.2,31,29.83,10.0,NW,11.5,20.7,N/A,,Scattered Clouds,320,2012-12-18 18:55:00
2:50 PM,60.8,30.2,31,29.85,10.0,NW,10.4,-,N/A,,Partly Cloudy,310,2012-12-18 19:50:00
3:55 PM,60.8,26.6,27,29.87,10.0,WNW,10.4,-,N/A,,Clear,290,2012-12-18 20:55:00
4:55 PM,57.2,24.8,29,29.89,10.0,WNW,6.9,16.1,N/A,,Clear,290,2012-12-18 21:55:00
5:55 PM,53.6,24.8,33,29.91,10.0,Calm,Calm,-,N/A,,Clear,0,2012-12-18 22:55:00
6:55 PM,51.8,26.6,38,29.94,10.0,Calm,Calm,-,N/A,,Clear,0,2012-12-18 23:55:00
7:55 PM,46.4,28.4,50,29.96,10.0,Calm,Calm,-,N/A,,Clear,0,2012-12-19 00:55:00
8:35 PM,42.8,30.2,61,29.97,10.0,Calm,Calm,-,N/A,,Clear,0,2012-12-19 01:35:00
8:55 PM,44.6,30.2,57,29.97,10.0,Calm,Calm,-,N/A,,Clear,0,2012-12-19 01:55:00
9:15 PM,44.6,30.2,57,29.96,10.0,Calm,Calm,-,N/A,,Clear,0,2012-12-19 02:15:00
9:35 PM,44.6,30.2,57,29.96,10.0,Calm,Calm,-,N/A,,Clear,0,2012-12-19 02:35:00
9:55 PM,41.0,30.2,65,29.95,10.0,Calm,Calm,-,N/A,,Clear,0,2012-12-19 02:55:00
10:15 PM,39.2,30.2,70,29.95,10.0,Calm,Calm,-,N/A,,Clear,0,2012-12-19 03:15:00
10:35 PM,39.2,30.2,70,29.94,10.0,Calm,Calm,-,N/A,,Clear,0,2012-12-19 03:35:00
10:55 PM,37.4,30.2,75,29.95,10.0,Calm,Calm,-,N/A,,Clear,0,2012-12-19 03:55:00
11:15 PM,37.4,30.2,75,29.95,10.0,Calm,Calm,-,N/A,,Clear,0,2012-12-19 04:15:00
11:35 PM,35.6,30.2,81,29.96,10.0,Calm,Calm,-,N/A,,Clear,0,2012-12-19 04:35:00
11:55 PM,35.6,30.2,81,29.96,10.0,Calm,Calm,-,N/A,,Clear,0,2012-12-19 04:55:00